AirNav   ProFlight Series 2 Aviation Headset
 
 1372 users online  

61J Portland Downtown Heliport
Portland, Oregon, USA

GOING TO PORTLAND?


FAA INFORMATION EFFECTIVE 18 JUNE 2020

Location

FAA Identifier: 61J
Lat/Long: 45-31-31.0000N 122-40-15.3440W
45-31.516667N 122-40.255733W
45.5252778,-122.6709289
(estimated)
Elevation: 78 ft. / 23.8 m (surveyed)
Variation: 18E (2000)
Time zone: UTC -7 (UTC -8 during Standard Time)
Zip code: 97209

Heliport Operations

Heliport use: Open to the public
Activation date: 07/1989
Control tower: no
ARTCC: SEATTLE CENTER
FSS: MC MINNVILLE FLIGHT SERVICE STATION
NOTAMs facility: MMV (NOTAM-D service available)
Attendance: UNATNDD
Wind indicator: lighted
Segmented circle: no
Lights: FOR HELIPORT PLASI WHEN APPROACHING FLT APCH & TKOF 020 - ACTVT CTAF 3 TIMES; WHEN APPROACHING FLIGHT APCH & TKOF 025 - ACTVT CTAF 5 TIMES; WHEN APPROACHING FLT APCH & TKOF 030 - ACTVT CTAF 7 TIMES.
Beacon: white-green-yellow (heliport)
Operates sunset to sunrise.
Landing fee: yes

Heliport Communications

CTAF/UNICOM: 123.075
WX ASOS at PDX (5 nm NE): PHONE (503) 493-7687
WX ASOS at VUO (6 nm N): 135.125 (360-696-1280)
WX ASOS at TTD (11 nm E): 135.625 (503-492-2887)
WX ASOS at HIO (12 nm W): 127.65 (503-640-2984)
WX ASOS at SPB (17 nm NW): 135.875 (503-543-6401)
WX ASOS at UAO (17 nm S): PHONE 503-678-3011

Nearby radio navigation aids

VOR radial/distance  VOR name  Freq  Var
BTGr173/13.8BATTLE GROUND VORTAC116.6021E
UBGr030/16.5NEWBERG VOR/DME117.4021E

 
NDB name  Hdg/Dist  Freq  Var  ID
BANKS096/17.035616EPND .--. -. -..

Heliport Services

Airframe service: NONE
Powerplant service: NONE

Runway Information

Helipad H1

Dimensions: 80 x 80 ft. / 24 x 24 m
Surface: concrete, in good condition
Weight bearing capacity: 
Single wheel: 25.0
Runway edge lights: PERI
YELLOW PERIMETER LGTS; BLUE CNTRLN TWY LGTS TO HELIPADS.
Operational restrictions: SINGLE HELIPORT WITH 4 FLIGHT APCHS 162/220/248/295 & TKOF DIRECTIONS 342/040/068/115.
Traffic pattern: leftleft
Markings: basic, in good condition
Approach lights: ARROW LGTS FOR FLIGHT APCH 220/248/295 & TKOF 040/068/115.

Heliport Ownership and Management from official FAA records

Ownership: Publicly-owned
Owner: CITY OF PORTLAND-BUREAU OF TRANSPT
1120 SW 5 TH AVE, SUITE 800
PORTLAND, OR 97204
Phone 503-823-5049
Manager: PORTLAND BUREAU OF TRANSPORTATION
1120 SW 5TH AVE, SUITE 800
PORTLAND, OR 97204
Phone 503-823-5049

Heliport Operational Statistics

Aircraft operations: avg 99/week *
59% transient general aviation
39% air taxi
2% military
* for 12-month period ending 20 September 2016

Additional Remarks

A52-H1 FLT APCH & TKOF 16 APCH 200 FT BRIDGE 950 FT FROM HELIPAD 280 FT L; FLT APCH & TKOF 20 APCH 225 FT LGTD BLDG 2100 FT FROM HELIPAD 300 FT L; FLT APCH & TKOF 25 APCH 375 FT LGTD BLDG 3600 FT FROM HELIPAD 350 FT R; & FLT APCH & TKOF 30 APCH 115 FT BRIDGE 930 FT FROM HELIPAD ACROSS APCH PATH.
+199 FT RADIO TOWER (LIGHTED) 4950 FT E OF HELIPORT IN FLT APCH & TKOF 025.
FOR CD CTC PORTLAND APCH AT 503-493-7545.

Instrument Procedures

There are no published instrument procedures at 61J.

Some nearby airports with instrument procedures:

KPDX - Portland International Airport (5 nm NE)
KVUO - Pearson Field Airport (6 nm N)
KTTD - Portland-Troutdale Airport (11 nm E)
KHIO - Portland-Hillsboro Airport (12 nm W)
KSPB - Scappoose Industrial Airpark (17 nm NW)
KUAO - Aurora State Airport (17 nm S)
 
Loc | Ops | Rwys | IFR | FBO | Links
Com | Nav | Svcs | Stats | Notes
Area around 61J (Portland Downtown Heliport)
 
Road maps at: MapQuest Bing Google
 
Aerial photo
WARNING: Photo may not be current or correct
Aerial photo of 61J (Portland Downtown Heliport)
Photo taken 01-Aug-2018
looking west.

Do you have a better or more recent aerial photo of Portland Downtown Heliport that you would like to share? If so, please send us your photo.

 
Sectional chart

 
Airport distance calculator
Flying to Portland Downtown Heliport? Find the distance to fly.

From to 61J

Sunrise and sunset
Times for 15-Jul-2020
 Local
(UTC-7)
 Zulu
(UTC)
Morning civil twilight05:0212:02
Sunrise05:3812:38
Sunset20:5503:55
Evening civil twilight21:3104:31

Current date and time
Zulu (UTC)  15-Jul-2020 17:05:01
Local (UTC-7)  15-Jul-2020 10:05:01
 
METAR
KPDX 
5nm NE 
151653Z VRB03KT 10SM FEW200 21/11 A3012 RMK AO2 SLP199 T02060106
KVUO 
6nm N 
151653Z AUTO 00000KT 10SM CLR 21/11 A3012 RMK AO2 SLP198 T02110106
KTTD 
11nm E 
151653Z AUTO 22004KT 10SM CLR 21/11 A3012 RMK AO2 SLP198 T02060111
KHIO 
12nm W 
151653Z 00000KT 10SM CLR 23/09 A3011 RMK AO2 SLP194 T02330089
KSPB 
17nm NW 
151653Z AUTO 02007KT 10SM CLR 22/12 A3011 RMK AO2 SLP194 T02220117
KUAO 
17nm S 
151653Z VRB03KT 10SM CLR 22/10 A3013 RMK AO2 SLP201 T02220100
TAF
KPDX 
5nm NE 
151430Z 1515/1612 VRB03KT P6SM FEW200 FM151700 32008KT P6SM SKC FM152200 33011G18KT P6SM SKC FM160400 32008KT P6SM SCT100
KTTD 
11nm E 
151132Z 1512/1612 VRB04KT P6SM SKC FM151800 28006KT P6SM SKC FM160500 VRB03KT P6SM SCT040 SCT100 FM161000 00000KT P6SM BKN040
KHIO 
12nm W 
151132Z 1512/1612 32005KT P6SM SKC FM152000 36011KT P6SM SKC FM160800 32005KT P6SM SCT100
KUAO 
17nm S 
151132Z 1512/1612 03004KT P6SM SKC FM152000 01008KT P6SM SKC FM160700 VRB04KT P6SM SCT100
NOTAMs
Click for the latest NOTAMs
NOTAMs are issued by the DoD/FAA and will open in a separate window not controlled by AirNav.

 

 
 

Would you like to see your business listed on this page?

 If your business provides an interesting product or service to pilots, flight crews, aircraft, or users of the Portland Downtown Heliport, you should consider listing it here.  To start the listing process, click on the button below
 
Add a business
 

Other Pages about Portland Downtown Heliport

Update a link
 
Copyright © AirNav, LLC. All rights reserved. Privacy Policy  Contact